Regional Weather Roundup
Issued by NWS Kansas City/Pleasant Hill, MO

Home | Current Version | Previous Version | Graphics & Text | Print | Product List | Glossary Off
Versions: 1 2 3 4 5 6 7 8 9 10 11 12 13 14 15 16 17 18 19 20 21 22 23 24 25 26 27

000
ASUS43 KEAX 290210
RWREAX

WEATHER ROUNDUP FOR EASTERN KANSAS AND NORTHWEST MISSOURI
NATIONAL WEATHER SERVICE KANSAS CITY/PLEASANT HILL MO
900 PM CDT SUN AUG 28 2016

KSZ040-057-103>105-MOZ028-029-037-043-290300-
...KANSAS CITY METROPOLITAN AREA...

CITY           SKY/WX    TMP DP  RH WIND       PRES   REMARKS
K.C. INTL      TSTM      73  68  84 S14       30.18R VSB 1/2
K.C. DOWNTOWN  TSTM      74  70  87 E15G28    30.12R FOG
LEES SUMMIT    LGT RAIN  74  70  87 E10       30.14R
OLATHE - IXD   MOCLDY    76  68  76 NE8       30.11R
OLATHE - OJC   MOCLDY    77  68  73 CALM      30.11R
LAWRENCE       CLOUDY    80  74  81 SE7       30.09R

$$

MOZ001>008-011>017-020>025-030>033-038>040-044>046-053-054-290300-
...NORTHERN AND CENTRAL MISSOURI...

CITY           SKY/WX    TMP DP  RH WIND       PRES   REMARKS
ST. JOSEPH     PTCLDY    72  69  90 N5        30.11R
MOSBY          CLOUDY    77  68  73 SE3       30.11R
WHITEMAN AFB   MOCLDY    77  77 100 E3        30.10R
CLINTON        CLOUDY    77  73  88 CALM      30.11R
SEDALIA        CLEAR     78  72  81 E3        30.13R
WARSAW         NOT AVBL
CHILLICOTHE    NOT AVBL
KIRKSVILLE     CLOUDY    75  69  81 SE3       30.14S

$$

MOZ041-047>049-056>058-063>065-088>090-097-290300-
...EASTERN AND SOUTHERN MISSOURI...

CITY           SKY/WX    TMP DP  RH WIND       PRES   REMARKS
ST. LOUIS INTL PTCLDY    86  72  62 E7        30.13R HX  92
SPIRIT OF STL  CLEAR     78  75  90 CALM      30.11R
COLUMBIA       CLEAR     76  73  91 NE6       30.13R
JEFFERSON CITY CLEAR     78  74  87 SE3       30.10R
ROLLA          CLEAR     76  72  87 E3        30.13R
OSAGE BEACH    CLEAR     77  73  87 E3        30.12R
SPRINGFIELD    MOCLDY    80  69  69 CALM      30.12R
BRANSON        MOCLDY    75  72  88 CALM      30.13R
JOPLIN         MOCLDY    80  70  71 S5        30.11R
WEST PLAINS    CLEAR     76  71  85 CALM      30.15R

$$

IAZ060-094-KSZ022-034>040-054-083-096-NEZ052-066-093-290300-
...KANSAS...SOUTHEAST NEBRASKA AND IOWA...

CITY           SKY/WX    TMP DP  RH WIND       PRES   REMARKS
TOPEKA         MOCLDY    77  73  87 W5        30.09R
MANHATTAN      PTCLDY    77  71  82 E7        30.09R
EMPORIA        MOCLDY    73  69  87 E3        30.10R
CHANUTE        CLEAR     78  67  68 E5        30.08R
WICHITA        CLOUDY    75  68  78 SW3       30.08R
OMAHA          MOCLDY    74  66  76 S9        30.10S
LINCOLN        CLOUDY    74  65  73 S6        30.10R
FALLS CITY     CLOUDY    71  69  93 E3        30.10R
LAMONI         CLOUDY    71  70  96 S3        30.12S
DES MOINES     CLOUDY    74  68  81 CALM      30.12R

$$





USA.gov is the U.S. government's official web portal to all federal, state and local government web resources and services.